www.pogodaiklimat.ru

Погода и климат >> Архив погоды >> Россия >> Красноярский край >> Светлогорск


ПОГОДА в Светлогорске

  • Прогноз погоды в Светлогорске
  • Монитор погоды в Светлогорске

АРХИВ ПОГОДЫ в Светлогорске

Время (UTC), дата Ветер
(напр.,м/с)
 
Видим.   Явления Облачность Т
(С)
Тd
(С)
f
(%)
Тe
(С)
Тes
(С)
Комфортность P
(гПа)
Po
(гПа)
Тmin
(С)
Tmax
(С)
R
(мм)
R24
(мм)
S
(см)
12 8.09 ЮЗ 4 н/о н/о +15.5 +10.1 70 +15 +15 1016.9 1004.9 +18.2
15 8.09 Ю 3 н/о н/о +12.6 +10.0 84 +11 +11 1016.3 1004.2
18 8.09 ЮЗ 3 н/о н/о +11.8 +9.3 85 +10 +10 1015.4 1003.2
21 8.09 ЮЗ 2 н/о н/о +11.0 +8.5 85 +10 +10 1015.2 1003.0
00 9.09 СЗ 2 н/о н/о +9.2 +7.3 88 +7 +7 1015.9 1003.6 +9.2
03 9.09 СЗ 3 н/о н/о +8.8 +6.4 85 +6 +6 1016.7 1004.4 +8.7
06 9.09 З 2 н/о н/о +10.1 +5.8 75 +9 +9 1016.7 1004.4
09 9.09 СЗ 3 н/о н/о +9.2 +6.5 83 +7 +7 1016.7 1004.4
12 9.09 СЗ 6-10
{10}
н/о н/о +8.0 +5.2 82 +4 +4 1016.9 1004.6 +10.6
15 9.09 СЗ 4
{10}
н/о н/о +5.9 +3.9 87 +2 +2 1016.9 1004.5
18 9.09 СЗ 3 н/о н/о +4.6 +2.5 86 +1 +1 1016.1 1003.6
21 9.09 СЗ 4 н/о н/о +3.7 +1.0 83 -1 -1 1014.7 1002.2
00 10.09 ЮЗ 2 н/о н/о +2.6 -0.3 81 -0 -0 1013.6 1001.1 +2.6
03 10.09 ЮЗ 1 н/о н/о +3.9 -1.2 69 +3 +3 1011.5 999.1 +2.4
06 10.09 Ю 1 н/о н/о +5.2 -3.9 52 +5 +5 1008.6 996.2
09 10.09 Ю 3 н/о н/о +6.1 -2.5 54 +3 +3 1005.6 993.2
12 10.09 Ю 4 н/о н/о +5.1 +0.1 70 +1 +1 1003.1 990.8 +6.6
15 10.09 Ю 4 н/о н/о +4.6 +2.7 87 0 0 1001.0 988.6
18 10.09 ЮЗ 5
{10}
н/о н/о +4.1 +2.2 87 -1 -1 998.8 986.5
21 10.09 Ю 4
{10}
н/о н/о +3.6 +2.2 91 -1 -1 996.7 984.4
00 11.09 СЗ 7-13
{13}
н/о н/о +1.7 +0.3 90 -5 -5 997.0 984.6 +1.3 4
09 11.09 ЮЗ 2
{11}
н/о н/о +0.8 -2.4 79 -3 -3 1001.9 989.4
12 11.09 Ю 1 н/о н/о -1.7 -2.7 93 -4 -4 1002.4 989.8 +1.9 5
15 11.09 Ю 1 н/о н/о -2.7 -3.8 92 -5 -5 1002.1 989.4
18 11.09 ЮВ 1 н/о н/о -2.2 -3.4 91 -5 -5 1000.4 987.8
21 11.09 В 1 н/о н/о -2.7 -4.1 90 -5 -5 1001.3 988.6
00 12.09 В 1 н/о н/о -1.7 -4.0 84 -4 -4 1003.0 990.4 -3.1
03 12.09 С 3 н/о н/о +0.9 -4.2 69 -3 -3 1004.2 991.6
06 12.09 С 3 н/о н/о +1.6 -4.8 62 -2 -2 1005.4 992.9
09 12.09 СЗ 5 н/о н/о +2.7 -2.5 69 -2 -2 1006.5 994.0
12 12.09 СЗ 4 н/о н/о +2.3 -2.0 73 -2 -2 1006.5 994.0 +3.5
18 12.09 СЗ 4 н/о н/о +2.4 +0.3 86 -3 -3 1005.2 992.7
21 12.09 С 3
{10}
н/о н/о +2.5 -0.7 79 -2 -2 1004.9 992.5
00 13.09 С 4 н/о н/о +2.0 -0.9 81 -3 -3 1004.9 992.4 +1.4
03 13.09 С 5 н/о н/о +5.5 0.0 68 +1 +1 1004.5 992.2
06 13.09 С 4 н/о н/о +9.2 +0.9 56 +7 +7 1004.4 992.2
09 13.09 СЗ 6-10
{10}
н/о н/о +7.9 +2.0 66 +4 +4 1005.6 993.4
12 13.09 СЗ 6-10
{11}
н/о н/о +4.8 +1.1 77 -0 -0 1006.9 994.5 +9.3
15 13.09 СЗ 4
{10}
н/о н/о +3.2 +0.5 82 -1 -1 1007.7 995.2
18 13.09 СЗ 3 н/о н/о +2.4 +0.2 85 -2 -2 1008.2 995.7
21 13.09 З 1 н/о н/о +1.1 -1.1 85 -1 -1 1008.3 995.7
00 14.09 ЮЗ 2 н/о н/о +0.7 -1.4 86 -3 -3 1008.7 996.1 +0.6
03 14.09 З 1 н/о н/о +1.0 -1.0 86 -1 -1 1009.3 996.7
06 14.09 З 2 н/о н/о +1.9 -1.0 81 -1 -1 1009.7 997.1
09 14.09 З 2 н/о н/о +1.4 -1.1 83 -2 -2 1010.4 997.8
12 14.09 З 2 н/о н/о +0.9 -1.0 87 -3 -3 1010.7 998.1 +2.2 0.0
15 14.09 ЮЗ 2 н/о н/о +0.6 -0.6 92 -3 -3 1010.6 998.0
18 14.09 ЮЗ 1 н/о н/о +0.5 -0.5 93 -2 -2 1010.2 997.5
21 14.09 СЗ 3 н/о н/о +0.7 -1.0 88 -4 -4 1010.2 997.5
00 15.09 З 3 н/о н/о -0.1 -1.9 88 -5 -5 1010.9 998.2 -0.2
03 15.09 З 3 н/о н/о +0.8 -1.8 83 -4 -4 1010.9 998.3
06 15.09 З 2 н/о н/о +2.4 -2.4 71 -1 -1 1011.4 998.9

 

Местоположение метеостанции Светлогорск (Красноярский край, Россия): широта 66.95 долгота 88.42 высота над уровнем моря 101 м.

В архиве по умолчанию представлена погода в Светлогорске за последнюю неделю. Архивные данные за месяц целиком и за предыдущие месяцы, начиная с января 2011 года, Вы можете получить, выбрав интересующий диапазон дат из раскрывающегося списка и нажав кнопку "Ввод!".


*Определитесь, кто Вы:
робот инопланетянин человек

Внимание! Время в таблицах - всемирное. Для получения местного времени необходимо прибавить поправку, которая равна 7 ч.

Смотрите также архив погоды в соседних городах и на ближайших метеорологических станциях:

Погода в Горбиачине (Красноярский край, Россия) (64 км)
Погода в Курейке (Красноярский край, Россия) (75 км)
Погода в Игарке (Красноярский край, Россия) (98 км)
Погода в Снежногорске (Красноярский край, Россия) (131 км)
Погода в Туруханске (Красноярский край, Россия) (132 км)
Погода в Большом Пороге (Эвенкия, Россия) (164 км)
Погода в Советской Речке (Красноярский край, Россия) (202 км)
Погода в Потапово (Красноярский край, Россия) (212 км)
Погода в Агате (Эвенкия, Россия) (220 км)
Погода в Норильске (Красноярский край, Россия) (265 км)

Пояснения к столбцам:

Ветер - указаны скорость ветра в м/с - средняя за 10 мин, порывы в срок и между сроками (в фигурных скобках) и направление, откуда дует ветер: С - северный, СВ - северо-восточный, В - восточный, ЮВ - юго-восточный, Ю - южный, ЮЗ - юго-западный, З - западный, СЗ - северо-западный.
Видимость - горизонтальная дальность видимости в метрах или километрах. При видимости от 1 до 10 км при отсутствии осадков обычно наблюдается дымка, при ухудшении видимости до 1 км и менее - туман. В сухую погоду видимость может ухудшаться дымом, пылью или мглою.
Явления - указаны атмосферные явления, наблюдавшиеся в срок или в последний час перед сроком; фигурными скобками обозначены явления, наблюдавшиеся между сроками (за 1-3 часа до срока); квадратными скобками обозначены град или гололедные отложения с указанием их диаметра в мм.
Облачность - указаны через наклонную черту общая и нижняя облачность в баллах и высота нижней границы облаков в метрах; квадратными скобками обозначены формы облаков: Ci - перистые, Cs - перисто-слоистые, Cc - перисто-кучевые, Ac - высококучевые, As - высокослоистые, Sc - слоисто-кучевые, Ns - слоисто-дождевые, Cu - кучевые, Cb - кучево-дождевые. Подробнее классификацию облаков см. в Атласе облаков (PDF).
T - Температура воздуха - температура, измеренная на высоте 2 м над землей.
Td - Температура точки росы - температура, при понижении до которой содержащийся в воздухе водяной пар достигнет насыщения.
f - Относительная влажность воздуха - влажноcть воздуха, измеренная на высоте 2 м над землей.
Te - Эффективная температура - температура, которую ощущает одетый по сезону человек в тени. Характеристика душности погоды. При расчете учитывается влияние влажности воздуха и скорости ветра на теплоощущения человека.
Tes - Эффективная температура на солнце - температура, которую ощущает человек, с поправкой на солнечный нагрев. Характеристика знойности погоды. Зависит от высоты солнца над горизонтом, облачности и скорости ветра. Ночью, в пасмурную погоду, а также при ветре 12 м/с и более поправка равна нулю.
P - Атмосферное давление - приведенное к уровню моря атмосферное давление.
Po - Атмосферное давление - измеренное на уровне метеостанции атмосферное давление.
Tmin - Минимальная температура - минимум температуры воздуха на высоте 2 м над землей.
Tmax - Максимальная температура - максимум температуры воздуха на высоте 2 м над землей.
R - Количество осадков - Количество выпавших осадков за период времени, мм. При наведении курсора мыши на число - период времени, за который выпало указанное количество осадков.
R24 - Количество осадков - Количество выпавших осадков за 24 часа, мм.
S - Снежный покров - Высота снежного покрова, см. При наведении курсора мыши на число - состояние снежного покрова и степень покрытия местности в баллах.